Weather reports worldwide

Advertisment
Metz-Nancy-Lorraine, France (7093): temperature & dewpoint: 07.12.2018 10:00:00 - 13.12.2018 10:00:00 (CET)Metz-Nancy-Lorraine, France (7093): wind speed & gusts: 07.12.2018 10:00:00 - 13.12.2018 10:00:00 (CET)Metz-Nancy-Lorraine, France (7093): wind direction: 07.12.2018 10:00:00 - 13.12.2018 10:00:00 (CET)Metz-Nancy-Lorraine, France (7093): reduced air pressure: 07.12.2018 10:00:00 - 13.12.2018 10:00:00 (CET)Metz-Nancy-Lorraine, France (7093): visibility: 07.12.2018 10:00:00 - 13.12.2018 10:00:00 (CET)Metz-Nancy-Lorraine, France (7093): sunshine duration: 07.12.2018 10:00:00 - 13.12.2018 10:00:00 (CET)Metz-Nancy-Lorraine, France (7093): precipitation: 07.12.2018 10:00:00 - 13.12.2018 10:00:00 (CET)
Date & Time tt [°C] td [°C] ff [km/h] ff [kn] fx [km/h] fx [kn] dd ppp [hPa] vv [km] sd [min] rr [mm]
13.12.2018 10:00:00 -0,7 -2,8 19 11 32 17 ENE 1017,7 15 60 0,0
13.12.2018 09:00:00 -1,8 -3,5 19 10 31 17 ENE 1018,0 18 10 0,0
13.12.2018 08:00:00 -1,7 -3,4 25 14 34 19 ENE 1017,9 20 0 0,0
13.12.2018 07:00:00 -1,9 -3,6 21 11 32 17 ENE 1018,1 21 0 0,0
13.12.2018 06:00:00 -2,1 -3,2 19 10 27 15 ENE 1018,5 17 0 0,0
13.12.2018 05:00:00 -1,5 -2,8 21 11 34 18 ENE 1018,9 20 0 0,0
13.12.2018 04:00:00 -1,4 -2,5 18 10 29 16 ENE 1019,3 19 0 0,0
13.12.2018 03:00:00 -1,4 -1,7 19 11 27 15 ENE 1019,9 14 0 0,0
13.12.2018 02:00:00 -0,7 -1,0 20 11 29 16 ENE 1020,1 13 0 0,0
13.12.2018 01:00:00 -0,6 -0,7 16 9 29 15 ENE 1020,6 11 0 0,0
13.12.2018 00:00:00 -0,7 -0,8 19 11 26 14 ENE 1021,0 9 0 0,0
12.12.2018 23:00:00 -1,4 -1,5 13 7 18 10 ENE 1021,6 10 0 0,0
12.12.2018 22:00:00 -1,2 -1,3 11 6 21 12 ENE 1022,1 9 0 0,0
12.12.2018 21:00:00 0,1 0,1 16 8 21 11 ENE 1022,3 8 0 0,0
12.12.2018 20:00:00 -0,6 -0,6 11 6 16 9 NE 1022,9 3,6 0 0,0
12.12.2018 19:00:00 -1,2 -1,2 4 2 10 5 N 1023,1 0,3 0 0,0
12.12.2018 18:00:00 -1,3 -1,3 6 3 10 6 N 1023,3 0,1 0 0,0
12.12.2018 17:00:00 -0,8 -0,8 8 4 10 6 NE 1023,4 0,1 0 0,0
12.12.2018 16:00:00 -0,4 -0,4 4 2 15 8 E 1023,6 0,4 0 0,0
12.12.2018 15:00:00 -0,6 -0,6 10 5 18 10 E 1023,8 0,5 0 0,0
12.12.2018 14:00:00 -1,2 -1,2 7 4 16 8 E 1024,3 0,2 0 0,0
12.12.2018 13:00:00 -2,1 -2,1 5 3 11 6 ENE 1025,1 0,1 0 0,0
12.12.2018 12:00:00 -2,5 -2,5 6 3 14 8 NE 1025,9 0,1 0 0,0
12.12.2018 11:00:00 -2,7 -2,7 5 3 13 7 ENE 1026,4 0,1 0 0,0
12.12.2018 10:00:00 -3,4 -3,4 7 4 11 6 ESE 1026,4 0,2 7 0,0
12.12.2018 09:00:00 -3,5 -3,5 6 3 9 5 E 1026,2 0,2 0 0,0
12.12.2018 08:00:00 -3,4 -3,4 4 2 8 4 N 1025,9 0,1 0 0,0
12.12.2018 07:00:00 -3,2 -3,2 6 3 9 5 NE 1025,7 0,1 0 0,0
12.12.2018 06:00:00 -3,5 -3,5 3 2 5 3 N 1025,6 0,1 0 0,0
12.12.2018 05:00:00 -2,8 -2,8 2 1 6 3 NW 1025,7 0,1 0 0,0
12.12.2018 04:00:00 -2,8 -3,1 3 1 11 6 WSW 1025,9 6 0 0,0
12.12.2018 03:00:00 -2,0 -2,0 8 4 11 6 NE 1025,7 6 0 0,0
12.12.2018 02:00:00 -1,4 -1,5 3 2 5 3 NNW 1025,5 5 0 0,0
12.12.2018 01:00:00 -1,8 -2,4 3 2 9 5 NE 1026,1 11 0 0,0
12.12.2018 00:00:00 -0,2 -1,2 5 3 6 4 W 1025,8 16 0 0,0
11.12.2018 23:00:00 -0,1 -1,0 4 2 9 5 W 1025,9 18 0 0,0
11.12.2018 22:00:00 0,3 -0,7 7 4 8 4 WSW 1026,0 10 0 0,0
11.12.2018 21:00:00 0,5 -1,1 2 1 8 4 WSW 1026,0 13 0 0,0
11.12.2018 20:00:00 1,1 -0,4 4 2 6 3 WNW 1026,2 32 0 0,0
11.12.2018 19:00:00 1,6 -0,7 0 0 8 4 N 1025,7 31 0 0,0
11.12.2018 18:00:00 0,5 0,2 5 3 9 5 SW 1025,9 9 0 0,0
11.12.2018 17:00:00 1,6 1,2 7 4 10 6 SW 1025,7 13 0 0,0
11.12.2018 16:00:00 3,2 1,9 6 4 12 7 SSW 1025,5 14 0 0,0
11.12.2018 15:00:00 3,8 2,2 8 4 16 9 SSW 1025,5 16 17 0,0
11.12.2018 14:00:00 4,2 1,9 8 4 18 10 SW 1025,8 19 27 0,0
11.12.2018 13:00:00 2,7 1,8 7 4 15 8 W 1026,6 15 29 0,0
11.12.2018 12:00:00 1,8 1,8 7 4 14 8 WSW 1027,0 4,9 10 0,0
11.12.2018 11:00:00 1,3 1,3 7 4 15 8 WSW 1027,6 0,2 0 0,0
11.12.2018 10:00:00 0,7 0,7 9 5 16 9 WSW 1027,2 0,2 0 0,0
11.12.2018 09:00:00 0,1 0,1 10 5 20 11 SW 1027,1 0,1 0 0,0
11.12.2018 08:00:00 -1,0 -1,0 11 6 13 7 S 1026,9 0,1 0 0,0
11.12.2018 07:00:00 0,4 0,4 9 5 13 7 SW 1026,7 0,6 0 0,0
11.12.2018 06:00:00 0,1 0,1 11 6 13 7 SW 1027,0 0,2 0 0,0
11.12.2018 05:00:00 -0,3 -0,6 8 4 13 7 SW 1027,3 11 0 0,0
11.12.2018 04:00:00 0,3 -0,8 10 5 11 6 SW 1027,1 13 0 0,0
11.12.2018 03:00:00 1,7 1,0 3 2 6 4 W 1027,0 22 0 0,0
11.12.2018 02:00:00 2,6 1,3 4 2 10 6 W 1026,8 21 0 0,0
11.12.2018 01:00:00 2,3 1,0 3 2 8 5 WSW 1026,8 25 0 0,0
11.12.2018 00:00:00 2,7 1,2 6 3 19 10 W 1026,7 25 0 0,0
10.12.2018 23:00:00 3,2 1,2 16 8 23 12 NW 1026,6 26 0 0,0
10.12.2018 22:00:00 3,8 2,2 13 7 19 10 WNW 1026,6 28 0 0,0
10.12.2018 21:00:00 4,0 2,0 14 8 29 16 WNW 1026,1 32 0 0,0
10.12.2018 20:00:00 4,8 2,5 21 11 30 16 WNW 1025,7 35 0 0,0
10.12.2018 19:00:00 4,7 2,1 21 12 37 20 WNW 1025,6 41 0 0,0
10.12.2018 18:00:00 5,0 2,0 23 13 35 19 W 1025,4 43 0 0,0
10.12.2018 17:00:00 5,0 2,2 18 10 35 19 WNW 1025,5 47 8 0,0
10.12.2018 16:00:00 5,9 2,4 23 12 37 20 W 1025,1 42 34 0,0
10.12.2018 15:00:00 6,7 2,6 29 16 39 21 W 1025,0 38 48 0,0
10.12.2018 14:00:00 7,0 3,2 30 16 42 23 WNW 1025,1 34 22 0,0
10.12.2018 13:00:00 6,7 4,2 26 14 34 19 WNW 1025,5 31 0 0,0
10.12.2018 12:00:00 5,5 4,5 21 12 42 23 WNW 1025,8 16 0 1,2
10.12.2018 11:00:00 6,3 3,5 21 11 34 19 W 1025,6 24 17 0,0
10.12.2018 10:00:00 5,8 3,6 19 10 29 16 WNW 1025,3 38 0 0,0
10.12.2018 09:00:00 5,4 3,4 18 10 29 16 WNW 1025,0 35 0 0,0
10.12.2018 08:00:00 5,0 3,2 16 9 33 18 WNW 1024,6 36 0 0,0
10.12.2018 07:00:00 5,1 3,1 24 13 34 19 WNW 1024,2 35 0 0,0
10.12.2018 06:00:00 5,3 2,8 26 14 36 19 W 1023,5 39 0 0,0
10.12.2018 05:00:00 5,4 3,2 22 12 34 18 W 1023,0 30 0 0,0
10.12.2018 04:00:00 5,5 3,0 19 10 32 18 WNW 1022,6 50 0 0,0
10.12.2018 03:00:00 5,8 3,3 23 12 36 20 W 1022,2 44 0 0,0
10.12.2018 02:00:00 5,7 3,5 24 13 36 19 W 1021,5 40 0 0,0
10.12.2018 01:00:00 5,4 3,2 24 13 40 21 W 1021,1 41 0 0,0
10.12.2018 00:00:00 5,5 3,3 25 14 40 22 W 1020,4 38 0 0,0
09.12.2018 23:00:00 5,6 3,1 22 12 36 20 W 1019,3 48 0 0,0
09.12.2018 22:00:00 5,7 3,2 22 12 31 17 WNW 1018,1 51 0 0,0
09.12.2018 21:00:00 6,1 3,8 21 11 45 24 WNW 1016,9 51 0 0,0
09.12.2018 20:00:00 6,8 4,8 28 15 41 22 WNW 1015,4 52 0 0,0
09.12.2018 19:00:00 7,2 5,2 28 15 48 26 WNW 1013,9 57 0 0,0
09.12.2018 18:00:00 7,3 5,3 30 16 42 23 W 1012,2 54 0 0,0
09.12.2018 17:00:00 6,8 4,6 24 13 45 24 W 1011,0 60 0 0,0
09.12.2018 16:00:00 7,5 5,8 26 14 54 29 W 1009,5 57 0 2,8
09.12.2018 15:00:00 8,1 5,9 38 21 65 35 W 1007,9 18 2 0,0
09.12.2018 14:00:00 7,4 6,2 38 21 62 33 WSW 1007,2 9 0 1,2
09.12.2018 13:00:00 7,4 5,9 40 22 66 36 WSW 1007,3 6 0 1,0
09.12.2018 12:00:00 7,7 5,5 45 24 68 37 WSW 1007,2 9 1 0,2
09.12.2018 11:00:00 7,9 4,8 46 25 74 40 WSW 1007,3 16 10 0,0
09.12.2018 10:00:00 7,5 5,0 40 21 68 37 WSW 1007,3 16 0 0,2
09.12.2018 09:00:00 7,7 4,6 45 24 66 36 WSW 1007,1 18 7 0,2
09.12.2018 08:00:00 7,8 4,2 42 23 67 36 WSW 1006,7 20 0 0,0
09.12.2018 07:00:00 7,2 4,3 39 21 67 36 W 1006,4 38 0 0,2
09.12.2018 06:00:00 6,6 4,6 36 19 79 42 W 1006,1 15 0 1,6
09.12.2018 05:00:00 8,3 4,7 44 24 70 38 W 1004,9 19 0 0,0
09.12.2018 04:00:00 8,6 5,3 41 22 74 40 WSW 1004,2 31 0 0,0
09.12.2018 03:00:00 8,3 5,0 46 25 82 44 W 1004,2 41 0 1,4
09.12.2018 02:00:00 9,3 6,7 45 25 71 38 W 1004,0 10 0 0,6
09.12.2018 01:00:00 10,1 6,8 42 23 79 43 W 1004,3 50 0 0,0
09.12.2018 00:00:00 10,2 7,4 51 27 77 41 WSW 1004,6 58 0 0,2
08.12.2018 23:00:00 10,0 8,4 51 28 73 40 WSW 1004,9 9 0 0,8
08.12.2018 22:00:00 8,9 8,3 47 25 67 36 SW 1005,3 10 0 0,4
08.12.2018 21:00:00 8,5 8,1 41 22 63 34 SW 1007,1 16 0 0,4
08.12.2018 20:00:00 8,0 7,6 42 23 63 34 SW 1008,8 5 0 0,4
08.12.2018 19:00:00 7,8 7,0 39 21 61 33 SW 1010,2 13 0 0,0
08.12.2018 18:00:00 8,1 5,9 41 22 62 33 SW 1011,4 31 0 0,0
08.12.2018 17:00:00 8,4 5,5 28 15 53 28 SW 1012,2 35 0 0,0
08.12.2018 16:00:00 8,4 5,1 34 18 59 32 WSW 1012,9 34 0 0,0
08.12.2018 15:00:00 7,6 5,9 31 17 61 33 WSW 1013,3 8 0 0,4
08.12.2018 14:00:00 7,9 5,4 37 20 65 35 WSW 1013,4 14 0 0,0
08.12.2018 13:00:00 7,8 5,1 42 23 70 38 WSW 1013,4 16 0 0,0
08.12.2018 12:00:00 7,2 5,3 42 23 66 35 WSW 1013,4 17 0 0,2
08.12.2018 11:00:00 7,1 4,9 42 23 60 33 WSW 1013,8 18 0 0,0
08.12.2018 10:00:00 6,8 4,6 40 22 62 33 WSW 1013,6 20 0 0,2
08.12.2018 09:00:00 6,1 4,3 41 22 59 32 WSW 1013,8 8 0 0,2
08.12.2018 08:00:00 6,1 3,9 39 21 56 30 SW 1014,0 30 0 0,0
08.12.2018 07:00:00 5,8 4,0 36 20 56 30 SW 1014,2 11 0 0,2
08.12.2018 06:00:00 6,2 3,0 35 19 56 30 SW 1014,6 34 0 0,0
08.12.2018 05:00:00 6,1 3,1 33 18 57 31 SW 1014,7 36 0 0,0
08.12.2018 04:00:00 6,0 2,8 37 20 55 30 WSW 1014,6 38 0 0,0
08.12.2018 03:00:00 6,0 3,0 39 21 57 31 WSW 1014,8 44 0 0,0
08.12.2018 02:00:00 6,2 3,0 37 20 54 29 WSW 1014,6 19 0 0,0
08.12.2018 01:00:00 6,1 2,9 29 16 51 28 WSW 1014,3 38 0 0,0
08.12.2018 00:00:00 6,5 2,9 31 17 53 29 WSW 1014,2 40 0 0,0
07.12.2018 23:00:00 7,0 3,4 42 23 61 33 W 1012,9 41 0 0,0
07.12.2018 22:00:00 7,5 3,5 33 18 51 28 W 1012,1 49 0 0,0
07.12.2018 21:00:00 7,6 4,5 34 18 50 27 W 1010,5 39 0 0,0
07.12.2018 20:00:00 7,9 5,0 34 18 60 32 W 1009,0 50 0 0,0
07.12.2018 19:00:00 8,6 5,3 42 23 83 45 W 1007,7 19 0 1,6
07.12.2018 18:00:00 9,4 8,2 47 25 77 41 SSW 1005,4 13 0 1,2
07.12.2018 17:00:00 9,2 7,8 37 20 55 30 SSW 1006,4 6 0 0,6
07.12.2018 16:00:00 10,3 6,4 42 23 64 34 SSW 1007,8 56 0 0,0
07.12.2018 15:00:00 10,0 6,7 36 19 61 33 SSW 1009,5 55 0 0,0
07.12.2018 14:00:00 10,5 6,8 40 21 69 37 SW 1010,3 43 0 0,0
07.12.2018 13:00:00 10,6 7,8 36 19 59 32 SW 1012,2 39 0 0,0
07.12.2018 12:00:00 10,3 7,2 33 18 49 26 SW 1014,1 57 0 0,0
07.12.2018 11:00:00 10,1 7,5 35 19 52 28 SW 1015,6 57 0 0,0
07.12.2018 10:00:00 10,1 7,9 31 17 49 26 SW 1016,2 53 0 0,0

tt = temperature
td = dewpoint
ff = wind speed
fx = gusts
dd = wind direction
ppp = reduced air pressure
vv = visibility
sd = sunshine duration
rr = precipitation

Next stations